SM6KNE Weather Reports


Display with metric or nautical units.
time (UTC)temp
F
wind
direction
speed
MPH
gust
MPH
rain 1hr
in
rain 24hr
in
rain mn
in
humidity
%
barometer
mb
20260505073524 48 254 5.0 8.0 0.00 0.00 0.00 49 1011.1
20260505072542 48 278 2.0 5.0 0.00 0.00 0.00 51 1011.1
20260505071523 47 6 0.0 1.0 0.00 0.00 0.00 51 1011.1
20260505070518 46 312 3.0 5.0 0.00 0.00 0.00 51 1011.1
20260505065536 45 265 8.0 10.0 0.00 0.00 0.00 52 1011.1
20260505064523 45 326 3.0 5.0 0.00 0.00 0.00 53 1011.1
20260505063519 44 293 4.0 9.0 0.00 0.00 0.00 53 1011.1
20260505062523 44 338 0.0 1.0 0.00 0.00 0.00 53 1011.1
20260505061544 44 315 3.0 7.0 0.00 0.00 0.00 54 1011.1
20260505060518 43 297 3.0 7.0 0.00 0.00 0.00 55 1011.1
20260505055524 43 297 4.0 6.0 0.00 0.00 0.00 56 1011.1
20260505054524 43 280 5.0 7.0 0.00 0.00 0.00 60 1011.1
20260505053515 42 274 3.0 7.0 0.00 0.00 0.00 64 1011.1
20260505052545 42 293 1.0 2.0 0.00 0.00 0.00 64 1011.1
20260505051523 42 0.0 0.0 0.00 0.00 0.00 65 1010.1
20260505050523 42 293 1.0 2.0 0.00 0.00 0.00 65 1010.1
20260505041523 41 0.0 0.0 0.00 0.00 0.00 69 1010.1
20260505040517 41 0.0 0.0 0.00 0.00 0.00 69 1010.1
20260505035528 41 248 1.0 2.0 0.00 0.00 0.00 71 1010.1
20260505034524 41 0.0 0.0 0.00 0.00 0.00 70 1009.1
20260505033528 41 0.0 0.0 0.00 0.00 0.00 70 1009.1
20260505032523 42 0.0 0.0 0.00 0.00 0.00 70 1009.1
20260505031523 43 280 1.0 4.0 0.00 0.00 0.00 71 1009.1
20260505030547 43 280 2.0 4.0 0.00 0.00 0.00 72 1009.1
20260505025523 43 277 3.0 6.0 0.00 0.00 0.00 74 1009.1
20260505024523 43 280 3.0 5.0 0.00 0.00 0.00 75 1009.1
20260505023524 43 272 3.0 5.0 0.00 0.00 0.00 76 1009.1
20260505022543 44 248 4.0 6.0 0.00 0.00 0.00 77 1009.1
20260505021523 44 293 3.0 5.0 0.00 0.00 0.00 79 1009.1
20260505020523 45 263 4.0 6.0 0.00 0.00 0.00 79 1009.1
20260505015523 45 293 3.0 10.0 0.00 0.00 0.00 80 1009.1
20260505014524 46 275 4.0 6.0 0.00 0.00 0.00 80 1009.1
20260505013522 46 268 6.0 9.0 0.00 0.00 0.00 80 1009.1
20260505012521 47 270 8.0 11.0 0.00 0.00 0.00 80 1009.1
20260505011518 47 256 7.0 13.0 0.00 0.00 0.00 80 1009.1
20260505010518 47 265 6.0 9.0 0.00 0.00 0.00 81 1009.1
20260505005524 47 264 9.0 13.0 0.00 0.00 0.00 81 1009.1
20260505004523 47 259 9.0 11.0 0.00 0.00 0.00 81 1009.1
20260505003523 47 268 8.0 10.0 0.00 0.00 0.00 81 1009.1
20260505002544 47 286 10.0 14.0 0.00 0.00 0.00 81 1009.1
20260505001523 47 258 8.0 11.0 0.00 0.00 0.00 81 1009.1
20260505000523 47 269 8.0 11.0 0.00 0.00 0.00 81 1009.1
20260504235523 47 278 9.0 13.0 0.00 0.00 0.00 81 1009.1
20260504234523 47 266 8.0 11.0 0.00 0.00 0.00 81 1009.1
20260504233523 47 261 8.0 12.0 0.00 0.00 0.00 80 1009.1
20260504232523 47 285 8.0 13.0 0.00 0.00 0.00 80 1009.1
20260504231543 47 259 7.0 10.0 0.00 0.00 0.00 80 1009.1
20260504230520 47 268 9.0 13.0 0.00 0.00 0.00 80 1009.1
20260504225518 47 248 7.0 9.0 0.00 0.00 0.00 80 1009.1
20260504224516 47 267 8.0 10.0 0.00 0.00 0.00 80 1009.1
20260504223523 47 256 8.0 10.0 0.00 0.00 0.00 80 1009.1
20260504222523 47 248 8.0 10.0 0.00 0.00 0.00 81 1009.1
20260504221521 47 249 7.0 10.0 0.00 0.00 0.00 80 1009.1
20260504220523 47 247 8.0 13.0 0.00 0.00 0.00 80 1009.1
20260504215523 47 267 11.0 15.0 0.00 0.00 0.00 80 1009.1
20260504214519 47 254 7.0 10.0 0.00 0.00 0.00 80 1009.1
20260504213545 47 247 8.0 9.0 0.00 0.00 0.00 80 1009.1
20260504212524 47 265 8.0 11.0 0.00 0.00 0.00 80 1009.1
20260504211539 47 258 8.0 12.0 0.00 0.00 0.00 79 1009.1
20260504210524 47 238 6.0 9.0 0.00 0.00 0.00 79 1009.1
20260504205523 47 253 8.0 11.0 0.00 0.00 0.00 79 1009.1
20260504204518 47 248 11.0 13.0 0.00 0.00 0.00 79 1009.1
20260504203523 48 266 8.0 11.0 0.00 0.00 0.00 78 1009.1
20260504202524 48 255 6.0 8.0 0.00 0.00 0.00 78 1009.1
20260504201543 48 261 6.0 9.0 0.00 0.00 0.00 77 1009.1
20260504200523 48 270 9.0 11.0 0.00 0.00 0.00 76 1009.1
20260504195543 48 228 6.0 11.0 0.00 0.00 0.00 76 1009.1
20260504194523 48 255 10.0 13.0 0.00 0.00 0.00 75 1009.1
20260504193520 48 253 8.0 9.0 0.00 0.00 0.00 76 1009.1
20260504192538 48 252 10.0 12.0 0.00 0.00 0.00 74 1009.1
20260504191523 48 248 7.0 10.0 0.00 0.00 0.00 74 1009.1
20260504190523 48 263 10.0 13.0 0.00 0.00 0.00 73 1009.1
20260504185523 49 257 10.0 17.0 0.00 0.00 0.00 72 1009.1
20260504184523 49 248 11.0 12.0 0.00 0.00 0.00 71 1009.1
20260504183523 49 280 12.0 15.0 0.00 0.00 0.00 68 1009.1
20260504182523 49 248 12.0 16.0 0.00 0.00 0.00 67 1009.1
20260504181526 50 255 12.0 14.0 0.00 0.00 0.00 65 1009.1
20260504180523 51 257 13.0 16.0 0.00 0.00 0.00 63 1009.1
20260504175523 52 269 12.0 14.0 0.00 0.00 0.00 60 1009.1
20260504174524 53 251 11.0 15.0 0.00 0.00 0.00 56 1009.1
20260504173523 54 251 14.0 18.0 0.00 0.00 0.00 53 1009.1
20260504172522 55 236 8.0 14.0 0.00 0.00 0.00 51 1009.1
20260504171523 56 242 14.0 15.0 0.00 0.00 0.00 48 1009.1
20260504170518 58 272 11.0 13.0 0.00 0.00 0.00 44 1009.1
20260504150523 65 269 12.0 18.0 0.00 0.00 0.00 33 1009.1
20260504140523 67 277 12.0 18.0 0.00 0.00 0.00 40 1008.1
20260504130543 67 263 15.0 21.0 0.00 0.00 0.00 46 1008.1
20260504110516 63 258 11.0 16.0 0.00 0.00 0.00 56 1007.1
20260504100523 59 276 11.0 13.0 0.00 0.00 0.00 67 1007.1
20260504081523 53 265 11.0 13.0 0.00 0.00 0.00 73 1006.0
20260504080522 53 275 5.0 9.0 0.00 0.00 0.00 75 1006.0